Vorticity
nan nan nan nan nan nan nan nan nan nan nan nan nan nan nan nan nan nan nan nan nan nan nan nan nan nan nan nan nan nan nan nan nan nan nan nan nan nan nan nan nan nan nan nan
nan 18 8 -3 -4 11 13 12 6 13 7 2 9 11 9 8 11 11 9 10 10 10 10 9 22 22 10 10 10 10 8 8 11 11 10 9 11 10 9 9 10 10 10 nan
nan 7 23 3 -1 8 12 10 5 8 8 7 9 10 11 9 11 9 10 10 11 12 10 9 11 22 19 10 10 11 10 10 11 10 10 10 10 10 11 10 10 10 9 nan
nan 13 23 1 -3 8 16 5 1 5 12 12 9 16 13 3 11 10 9 11 13 12 11 12 12 10 18 20 11 11 11 11 11 10 10 10 10 9 9 10 10 10 10 nan
nan 17 15 -3 -11 9 19 2 -4 6 9 9 15 26 5 -4 11 12 12 14 14 13 13 13 11 12 20 17 11 10 11 12 11 10 10 10 9 9 8 9 10 10 11 nan
nan 13 6 1 2 15 28 -3 -12 12 8 7 14 19 -1 3 12 11 14 14 13 16 14 11 11 17 23 20 12 9 11 11 10 10 10 9 10 9 9 10 11 12 13 nan
nan 18 3 -3 13 26 17 -1 -1 11 11 13 14 6 5 10 12 13 11 11 14 15 12 10 14 17 15 13 10 16 15 12 11 11 10 10 10 10 12 11 11 12 13 nan
nan 10 -6 5 21 16 4 6 10 11 12 10 9 9 12 12 12 11 11 12 15 13 10 10 13 15 11 8 12 17 14 10 11 12 12 13 11 11 12 11 9 9 8 nan
nan 6 2 7 12 4 9 10 11 12 12 12 10 11 12 11 11 11 13 13 11 11 10 10 11 13 11 9 18 19 13 9 8 11 14 13 9 8 10 11 10 9 8 nan
nan 7 3 13 5 4 7 11 12 13 13 12 12 11 13 13 10 10 10 11 11 10 10 10 11 12 11 13 17 18 12 10 11 9 8 11 11 11 10 9 9 10 9 nan
nan -3 11 6 -7 5 9 11 12 13 13 11 12 12 13 12 11 12 10 10 11 10 10 9 11 11 11 14 17 14 12 12 11 10 10 8 11 13 13 15 19 16 14 nan
nan 7 11 -3 1 10 11 9 12 13 12 11 12 11 13 13 11 11 9 10 11 10 10 10 12 11 11 15 16 13 12 12 13 11 10 10 10 10 13 16 19 17 17 nan
nan 4 11 16 10 7 8 12 13 14 13 11 12 12 12 12 9 11 12 10 10 11 12 11 11 11 12 13 15 16 13 15 12 12 12 11 11 11 6 9 13 11 12 nan
nan 12 11 10 8 8 12 13 14 14 13 11 10 11 11 12 11 10 11 12 12 12 12 12 11 11 13 14 14 14 14 13 11 12 12 13 13 12 11 11 5 11 12 nan
nan 8 10 7 9 13 14 12 13 12 10 11 13 11 10 11 12 11 11 13 13 11 10 11 11 10 13 14 13 13 14 14 14 12 13 12 11 12 13 13 12 12 12 nan
nan 15 14 12 12 11 12 11 11 10 10 11 10 11 13 13 12 12 12 10 11 12 12 12 11 11 12 14 14 13 12 13 17 13 12 11 12 12 12 12 12 12 13 nan
nan 10 9 12 11 12 13 12 11 11 10 9 11 12 12 13 11 11 12 13 11 10 13 13 12 13 13 13 13 14 13 8 10 13 13 13 13 12 13 13 12 12 12 nan
nan 10 11 11 11 12 11 12 12 11 11 11 13 13 11 11 11 11 12 14 13 10 10 13 16 14 14 16 14 13 13 13 10 13 13 14 13 12 12 12 12 12 13 nan
nan 13 13 14 14 13 12 11 11 12 12 13 13 12 12 11 12 12 11 13 12 11 11 10 11 16 14 15 17 14 13 13 12 12 12 11 11 12 12 13 11 10 11 nan
nan 12 12 12 12 13 13 12 12 12 12 13 13 11 10 10 13 14 12 10 12 12 12 14 12 11 11 10 14 14 12 12 12 12 11 9 11 12 11 11 11 11 11 nan
nan 11 12 12 12 11 12 12 13 12 12 13 12 11 11 11 9 12 15 9 8 15 12 14 17 17 13 12 9 13 12 11 11 12 12 12 11 10 11 9 10 11 11 nan
nan 11 11 11 11 10 11 12 12 12 12 11 12 11 11 10 12 10 11 13 6 13 18 12 14 18 17 12 14 12 12 12 12 12 11 11 11 10 10 11 11 11 12 nan
nan 10 11 10 11 11 11 11 11 11 11 11 12 13 12 10 11 9 7 12 15 12 17 12 12 13 17 13 13 12 11 12 12 12 12 14 12 12 12 11 12 12 11 nan
nan 10 11 11 12 11 9 10 11 10 10 10 10 12 14 12 11 11 9 7 13 14 14 13 10 10 12 15 12 12 12 11 12 12 11 12 12 12 12 11 11 12 11 nan
nan 10 11 12 12 10 9 11 11 9 10 9 9 10 12 13 12 12 10 7 9 14 5 5 8 12 13 12 12 12 12 12 12 12 11 10 12 11 12 12 11 11 10 nan
nan 9 9 10 11 11 12 12 12 11 11 10 10 10 11 12 11 11 12 11 7 10 13 8 6 8 12 12 11 12 12 11 13 12 11 11 11 11 11 11 11 10 10 nan
nan nan nan nan nan nan nan nan nan nan nan nan nan nan nan nan nan nan nan nan nan nan nan nan nan nan nan nan nan nan nan nan nan nan nan nan nan nan nan nan nan nan nan nan
CAPE
0 0 4 2 0 6 5 3 7 2 3 4 2 6 3 7 3 4 2 1 4 3 0 100 154 358 305 323 340 245 52 35 12 4 0 0 0 0 0 0 0 0 0 0
0 10 6 4 0 2 4 3 0 0 0 2 1 1 4 7 5 2 3 3 3 3 1 0 0 172 259 350 301 217 89 41 18 0 0 0 0 0 0 0 0 0 0 0
0 0 0 1 3 1 5 4 0 0 2 1 0 0 2 4 8 5 4 5 4 5 4 1 0 0 331 396 213 104 35 12 1 0 0 0 0 0 0 0 0 0 0 0
5 0 4 0 0 1 5 3 0 0 0 0 1 0 6 5 4 2 2 3 4 4 5 2 0 0 0 144 57 2 2 0 0 0 0 0 0 0 0 0 0 0 0 0
4 2 0 1 0 1 5 0 1 3 0 2 2 2 0 8 9 5 2 3 5 4 4 3 1 0 0 36 0 0 0 0 0 0 0 0 0 0 0 0 0 0 0 0
1 1 2 0 0 0 0 1 0 6 1 1 2 2 2 8 9 4 2 3 3 2 1 1 1 0 0 59 17 0 0 0 0 0 0 0 0 0 0 0 0 0 0 0
0 0 0 0 0 0 0 0 7 7 3 0 1 6 8 21 9 9 3 3 2 1 2 2 1 0 1 0 1 0 0 0 0 0 0 0 0 0 0 0 0 0 0 0
0 0 0 0 0 0 5 2 5 10 4 1 10 9 11 9 9 5 3 2 1 1 1 1 2 1 2 0 2 0 0 0 0 0 0 0 0 0 0 0 0 0 0 0
0 0 0 0 0 0 0 3 3 9 12 16 6 7 8 12 8 4 2 2 1 1 1 1 1 1 2 0 0 0 0 0 0 0 0 0 0 0 0 0 0 0 0 0
0 0 0 0 0 0 0 1 1 13 17 13 13 9 6 9 10 11 6 4 2 1 1 1 1 0 1 0 1 1 1 1 0 0 0 0 0 0 0 0 0 0 0 0
0 0 0 0 0 0 0 1 6 8 4 9 9 5 5 9 10 11 7 6 4 2 1 1 1 1 0 0 0 0 0 0 0 0 0 0 0 0 0 0 0 0 0 0
0 0 0 0 0 0 4 5 10 13 6 5 5 4 7 10 11 10 7 7 4 3 1 1 1 1 0 0 0 0 0 1 0 0 0 0 0 0 2 1 1 0 0 0
0 0 0 0 0 0 2 9 6 7 7 11 5 12 6 8 7 10 4 3 3 2 2 2 2 1 1 0 0 0 0 0 0 0 0 0 0 0 0 1 1 1 1 0
0 0 0 0 1 1 9 5 8 1 5 7 7 5 6 6 3 5 2 3 4 2 2 2 2 1 1 0 0 0 0 2 0 0 0 0 0 0 0 0 0 1 4 1
0 1 2 2 2 3 3 3 2 2 4 1 2 1 0 1 1 0 2 3 3 1 0 1 1 1 1 0 0 0 0 0 0 0 0 0 0 0 0 0 0 0 1 5
0 0 0 1 2 1 2 0 0 1 1 0 1 0 0 6 3 2 0 7 5 4 5 2 2 2 1 0 0 0 0 9 5 0 0 0 0 0 0 0 0 0 0 0
0 0 0 0 1 1 1 2 2 0 0 0 2 2 0 1 2 0 1 3 5 4 2 6 4 1 2 1 2 1 0 0 10 0 0 0 0 0 0 0 0 0 0 2
1 1 1 3 2 2 0 1 1 1 0 1 2 0 1 1 4 1 1 1 1 1 3 3 8 4 2 3 5 5 3 3 1 1 0 0 1 1 0 0 0 0 0 7
0 1 1 1 1 1 1 1 2 1 0 0 3 3 2 1 2 4 5 3 2 3 4 5 5 4 6 5 3 3 2 1 1 2 2 3 1 1 0 0 0 0 0 0
0 0 1 1 1 1 1 1 3 2 3 6 2 5 4 3 2 4 4 3 6 9 7 6 3 3 4 4 2 3 3 2 2 2 1 0 0 0 0 1 0 0 0 0
0 0 1 2 1 1 2 2 2 2 4 2 2 3 4 7 5 3 2 2 6 6 5 6 3 3 4 2 1 1 1 1 1 1 1 1 0 0 0 0 0 0 0 0
0 0 1 1 1 1 1 2 2 2 1 1 1 1 0 1 0 1 4 3 2 5 1 3 3 7 4 3 0 0 0 0 1 1 1 0 0 0 0 0 0 1 1 0
0 0 0 0 0 1 1 1 2 2 0 1 1 2 2 2 2 3 3 4 3 4 1 1 2 7 4 0 0 0 0 0 0 0 0 0 0 0 0 0 1 1 1 0
0 0 0 0 0 0 0 1 1 1 0 0 0 0 0 0 0 0 3 5 4 3 2 0 1 1 0 0 0 0 0 0 0 0 0 1 0 0 0 0 0 0 0 0
0 0 0 0 0 0 0 1 0 0 0 0 0 0 0 0 1 1 0 0 2 0 1 2 1 0 0 0 0 0 0 0 0 0 0 0 0 0 0 0 0 0 0 0
0 0 0 0 0 0 0 0 0 0 0 0 1 0 0 0 0 0 0 1 0 1 1 1 0 0 0 0 0 0 0 0 0 0 0 0 0 0 0 0 0 0 0 0
0 0 0 0 0 0 0 0 0 0 0 0 0 0 0 0 0 0 0 0 0 0 1 1 1 0 0 0 0 0 0 0 0 0 0 0 0 0 0 0 0 0 0 0